Location: Middlebury
(44.0133°N, 73.1813°W)
Time: 09:50:37
(UTC-05:00)

ISS - Visible Passes

Search period start: 04 December 2021 00:00
Search period end: 14 December 2021 00:00
Orbit: 417 x 423 km, 51.6° (Epoch: 04 December)

Date Brightness Start Highest point End Pass type
(mag) Time Alt. Az. Time Alt. Az. Time Alt. Az.
04 Dec -3.6 18:13:49 10° WNW 18:16:58 74° W 18:16:58 74° W visible
05 Dec -3.8 17:26:24 10° NW 17:29:46 65° NNE 17:32:01 19° ESE visible
05 Dec -0.7 19:03:49 10° W 19:05:02 16° WSW 19:05:02 16° WSW visible
06 Dec -2.0 18:15:56 10° WNW 18:18:58 30° SW 18:20:19 22° S visible
07 Dec -2.8 17:28:15 10° WNW 17:31:33 50° SW 17:34:49 10° SE visible
08 Dec -0.5 18:19:08 10° WSW 18:20:20 12° SW 18:21:33 10° SSW visible
09 Dec -0.8 17:30:29 10° W 17:32:58 19° SW 17:35:24 10° S visible
10 Dec -1.5 16:42:28 10° WNW 16:45:29 30° SW 16:48:29 10° SSE visible
12 Dec 0.0 16:45:18 10° WSW 16:46:32 12° SW 16:47:46 10° SSW visible
